Regional Weather Roundup
Issued by NWS Charleston, WV

Home | Current Version | Previous Version | Graphics & Text | Print | Product List | Glossary On
Versions: 1 2 3 4 5 6 7 8 9 10 11 12 13 14 15 16 17 18 19 20 21 22 23 24 25 26 27 28 29 30 31 32
000
ASUS41 KRLX 211410
RWRRLX
West Virginia Regional Weather Roundup
National Weather Service Charleston WV
1000 AM EDT TUE OCT 21 2014

Note: "fair" indicates few or no clouds below 12,000 feet with no
significant weather and/or obstructions to visibility.

WVZ003-211500-
Northern Panhandle of West Virginia

CITY           SKY/WX    TMP DP  RH WIND       PRES   REMARKS
WHEELING       CLOUDY    50  48  93 W6        29.89R FOG
$$

WVZ009-211500-
Northwest West Virginia

CITY           SKY/WX    TMP DP  RH WIND       PRES   REMARKS
PARKERSBURG    CLOUDY    52  49  89 VRB3      29.93S
$$

WVZ006-211500-
Western West Virginia

CITY           SKY/WX    TMP DP  RH WIND       PRES   REMARKS
HUNTINGTON     CLOUDY    53  49  86 NW7       29.95R
$$

WVZ015-211500-
West Central West Virginia

CITY           SKY/WX    TMP DP  RH WIND       PRES   REMARKS
CHARLESTON     LGT RAIN  54  50  86 W12G20    29.93R
$$

WVZ022-031-211500-
North Central West Virginia

CITY           SKY/WX    TMP DP  RH WIND       PRES   REMARKS
CLARKSBURG     CLOUDY    52  49  89 W5        29.90S
MORGANTOWN     CLOUDY    53  47  79 CALM      29.91S
$$

WVZ025-035-042-045-211500-
Southern West Virginia

CITY           SKY/WX    TMP DP  RH WIND       PRES   REMARKS
BECKLEY        CLOUDY    50  46  86 SW8       29.94S
LOGAN          CLOUDY    52  50  93 SW8G16    29.94S
BLUEFIELD      CLOUDY    52  47  83 W10       29.95F
LEWISBURG      CLOUDY    52  48  86 CALM      29.93F
$$

WVZ047-211500-
Northern Mountains of West Virginia

CITY           SKY/WX    TMP DP  RH WIND       PRES   REMARKS
ELKINS         LGT RAIN  50  49  96 S5        29.91S FOG
$$

WVZ052-211500-
Eastern Panhandle of West Virginia

CITY           SKY/WX    TMP DP  RH WIND       PRES   REMARKS
MARTINSBURG    SUNNY     55  48  77 VRB3      29.89R
PETERSBURG     RAIN     N/A N/A N/A CALM      29.90F
$$


USA.gov is the U.S. government's official web portal to all federal, state and local government web resources and services.